Location: Kellogg
(38.0159°N, 90.0546°W)
Time: 00:52:28
(UTC+00:00)

Vanguard 2 - Pass Details

Date: 24 September 2024
Orbit: 552 x 2910 km, 32.9° (Epoch: 15 October)

Event Time Altitude Azimuth Distance (km) Brightness Sun altitude
Rises 12:53:35 0° 258° (WSW) 3,455 10.3 11.6°
Reaches altitude 10° 12:57:13 10° 233° (SW) 2,874 10.1 12.3°
Maximum altitude 13:00:41 14° 203° (SSW) 2,925 10.4 12.9°
Drops below altitude 10° 13:04:54 10° 175° (S) 3,667 11.3 13.8°
Sets 13:10:53 0° 155° (SSE) 5,243 12.4 14.9°
